Dayton, OR

2:21 PM PST on January 20, 2017 (GMT -0800)
McMinnville Municipal

Weather History for KMMV - April, 2013

Change the Weather History Date:

Monday, April 8, 2013

  Actual Average Record
Temperature  
Mean Temperature 47 °F 49 °F  
Max Temperature 56 °F 59 °F 85 °F (1923)
Min Temperature 37 °F 39 °F 24 °F (1931)
Degree Days  
Heating Degree Days 18 16  
Month to date heating degree days 97 130  
Since 1 July heating degree days 3713 4081  
Cooling Degree Days 0 0  
Month to date cooling degree days 0 0  
Year to date cooling degree days 0 0  
Moisture  
Dew Point 39 °F    
Average Humidity 72    
Maximum Humidity 92    
Minimum Humidity 51    
Precipitation  
Precipitation 0.01 in 0.11 in 0.76 in (1972)
Month to date precipitation 1.36 0.97  
Year to date precipitation 5.96 15.54  
Snow  
Snow 0.00 in - - ()
Month to date snowfall 0.0  
Snow Depth 0.00 in    
Sea Level Pressure  
Sea Level Pressure 30.18 in    
Wind  
Wind Speed 5 mph (WSW)    
Max Wind Speed 14 mph    
Max Gust Speed 16 mph    
Visibility 10 miles    
Events Rain    
T = Trace of Precipitation, MM = Missing Value Source: NWS Daily Summary

Daily Weather History Graph

Daily Weather History Graph

Search for Another Location

Airport or City:

Trip Planner

Search our weather history database for the weather conditions in past years. The results will help you decide how hot, cold, wet, or windy it might be!

Date:

Astronomy

Apr. 08, 2013 Rise Set
Actual Time 6:39 AM PDT 7:49 PM PDT
Civil Twilight 6:09 AM PDT 8:20 PM PDT
Nautical Twilight 5:33 AM PDT 8:56 PM PDT
Astronomical Twilight 4:54 AM PDT 9:35 PM PDT
Moon 5:36 AM PDT (4/8) 6:27 PM PDT (4/8)
Length of Visible Light 14h 10m
Length of Day
13h 10m
Waning Crescent, 3% of the Moon is Illuminated
Apr 8
Waning Crescent
Apr 10
New
Apr 18
First Quarter
Apr 25
Full
May 2
Last Quarter

Hourly Weather History & Observations

Time (PDT) Temp. Windchill Dew Point Humidity Pressure Visibility Wind Dir Wind Speed Gust Speed Precip Events Conditions
12:53 AM 39.9 °F 36.7 °F 36.0 °F 86% 30.01 in 10.0 mi SW 4.6 mph - N/A   Clear
1:53 AM 37.9 °F - 35.1 °F 89% 30.04 in 10.0 mi Calm Calm - N/A   Clear
2:53 AM 39.0 °F 34.0 °F 37.0 °F 93% 30.06 in 10.0 mi WSW 6.9 mph - N/A   Overcast
3:53 AM 41.0 °F 38.0 °F 37.0 °F 86% 30.06 in 10.0 mi West 4.6 mph - N/A   Mostly Cloudy
4:53 AM 42.1 °F 39.2 °F 39.0 °F 89% 30.09 in 10.0 mi WSW 4.6 mph - 0.00 in Rain Light Rain
5:53 AM 41.0 °F 39.0 °F 37.9 °F 89% 30.12 in 10.0 mi West 3.5 mph - 0.00 in   Overcast
6:53 AM 39.9 °F - 37.0 °F 89% 30.13 in 10.0 mi Calm Calm - N/A   Mostly Cloudy
7:53 AM 42.1 °F - 39.0 °F 89% 30.15 in 10.0 mi Calm Calm - N/A   Mostly Cloudy
8:53 AM 45.0 °F 40.6 °F 39.9 °F 82% 30.17 in 10.0 mi SW 8.1 mph - N/A   Overcast
9:53 AM 48.9 °F - 42.1 °F 77% 30.17 in 10.0 mi SW 6.9 mph - N/A   Clear
10:53 AM 51.1 °F - 39.9 °F 66% 30.18 in 10.0 mi South 5.8 mph - 0.01 in   Mostly Cloudy
11:53 AM 50.0 °F - 41.0 °F 71% 30.20 in 10.0 mi SSW 8.1 mph - N/A   Overcast
12:53 PM 52.0 °F - 43.0 °F 71% 30.21 in 10.0 mi Variable 4.6 mph - N/A   Overcast
1:53 PM 53.1 °F - 43.0 °F 69% 30.21 in 10.0 mi SSW 6.9 mph - 0.00 in   Overcast
2:53 PM 54.0 °F - 43.0 °F 66% 30.21 in 10.0 mi WSW 8.1 mph - 0.00 in   Overcast
3:53 PM 55.0 °F - 39.0 °F 55% 30.20 in 10.0 mi West 10.4 mph - N/A   Overcast
4:53 PM 54.0 °F - 42.1 °F 64% 30.21 in 10.0 mi WSW 6.9 mph - N/A   Overcast
5:53 PM 55.0 °F - 37.9 °F 53% 30.22 in 10.0 mi NW 9.2 mph - N/A   Scattered Clouds
6:53 PM 53.1 °F - 37.9 °F 57% 30.24 in 10.0 mi NW 8.1 mph - N/A   Partly Cloudy
7:53 PM 50.0 °F - 37.0 °F 61% 30.26 in 10.0 mi WNW 3.5 mph - N/A   Mostly Cloudy
8:53 PM 46.9 °F - 39.0 °F 74% 30.28 in 10.0 mi Calm Calm - N/A   Mostly Cloudy
9:53 PM 44.1 °F 41.5 °F 37.9 °F 79% 30.29 in 10.0 mi WSW 4.6 mph - N/A   Clear
10:53 PM 43.0 °F 39.5 °F 39.0 °F 86% 30.30 in 10.0 mi WSW 5.8 mph - N/A   Clear
11:53 PM 43.0 °F 40.3 °F 37.9 °F 82% 30.31 in 10.0 mi WSW 4.6 mph - N/A   Clear